owner,sensor,date,latitude,longitude,air_temperature,qcFlag 
WAVCIS,ioos:station:WAVCIS:CSI15:1,2008-12-01T00:00:00Z,28.8332,-90.8320,18.93,11111222 
WAVCIS,ioos:station:WAVCIS:CSI15:1,2008-12-01T01:00:00Z,28.8332,-90.8320,19.02,11111222 
WAVCIS,ioos:station:WAVCIS:CSI15:1,2008-12-01T02:00:00Z,28.8332,-90.8320,18.72,11111222 
WAVCIS,ioos:station:WAVCIS:CSI15:1,2008-12-01T03:00:00Z,28.8332,-90.8320,17.94,11111222 
WAVCIS,ioos:station:WAVCIS:CSI15:1,2008-12-01T04:00:00Z,28.8332,-90.8320,18.43,11111222 
WAVCIS,ioos:station:WAVCIS:CSI15:1,2008-12-01T05:00:00Z,28.8332,-90.8320,18.61,11111222 
WAVCIS,ioos:station:WAVCIS:CSI15:1,2008-12-01T06:00:00Z,28.8332,-90.8320,18.48,11111222 
WAVCIS,ioos:station:WAVCIS:CSI15:1,2008-12-01T07:00:00Z,28.8332,-90.8320,18.51,11111222 
WAVCIS,ioos:station:WAVCIS:CSI15:1,2008-12-01T08:00:00Z,28.8332,-90.8320,18.7,11111222 
WAVCIS,ioos:station:WAVCIS:CSI15:1,2008-12-01T09:00:00Z,28.8332,-90.8320,19.02,11111222 
WAVCIS,ioos:station:WAVCIS:CSI15:1,2008-12-01T10:00:00Z,28.8332,-90.8320,18.88,11111222 
WAVCIS,ioos:station:WAVCIS:CSI15:1,2008-12-01T11:00:00Z,28.8332,-90.8320,18.63,11111222 
WAVCIS,ioos:station:WAVCIS:CSI15:1,2008-12-01T12:00:00Z,28.8332,-90.8320,18.26,11111222 
WAVCIS,ioos:station:WAVCIS:CSI15:1,2008-12-01T13:00:00Z,28.8332,-90.8320,17.64,11111222 
WAVCIS,ioos:station:WAVCIS:CSI15:1,2008-12-01T14:00:00Z,28.8332,-90.8320,17.92,11111222 
WAVCIS,ioos:station:WAVCIS:CSI15:1,2008-12-01T15:00:00Z,28.8332,-90.8320,18.26,11111222 
WAVCIS,ioos:station:WAVCIS:CSI15:1,2008-12-01T16:00:00Z,28.8332,-90.8320,18.92,11111222 
WAVCIS,ioos:station:WAVCIS:CSI15:1,2008-12-01T17:00:00Z,28.8332,-90.8320,17.55,11111222 
WAVCIS,ioos:station:WAVCIS:CSI15:1,2008-12-01T18:00:00Z,28.8332,-90.8320,17.3,11111222 
WAVCIS,ioos:station:WAVCIS:CSI15:1,2008-12-01T19:00:00Z,28.8332,-90.8320,16.48,11111222 
WAVCIS,ioos:station:WAVCIS:CSI15:1,2008-12-01T20:00:00Z,28.8332,-90.8320,15.97,11111222 
WAVCIS,ioos:station:WAVCIS:CSI15:1,2008-12-01T21:00:00Z,28.8332,-90.8320,15.67,11111222 
WAVCIS,ioos:station:WAVCIS:CSI15:1,2008-12-01T22:00:00Z,28.8332,-90.8320,15.7,11111222 
WAVCIS,ioos:station:WAVCIS:CSI15:1,2008-12-01T23:00:00Z,28.8332,-90.8320,15.9,11111222 
WAVCIS,ioos:station:WAVCIS:CSI15:1,2008-12-02T00:00:00Z,28.8332,-90.8320,15.79,11111222 
WAVCIS,ioos:station:WAVCIS:CSI15:1,2008-12-02T01:00:00Z,28.8332,-90.8320,15.14,11111222 
WAVCIS,ioos:station:WAVCIS:CSI15:1,2008-12-02T02:00:00Z,28.8332,-90.8320,14.71,11111222 
WAVCIS,ioos:station:WAVCIS:CSI15:1,2008-12-02T03:00:00Z,28.8332,-90.8320,14.25,11111222 
WAVCIS,ioos:station:WAVCIS:CSI15:1,2008-12-02T04:00:00Z,28.8332,-90.8320,13.6,11111222 
WAVCIS,ioos:station:WAVCIS:CSI15:1,2008-12-02T05:00:00Z,28.8332,-90.8320,13.17,11111222 
WAVCIS,ioos:station:WAVCIS:CSI15:1,2008-12-02T06:00:00Z,28.8332,-90.8320,13.11,11111222 
WAVCIS,ioos:station:WAVCIS:CSI15:1,2008-12-02T07:00:00Z,28.8332,-90.8320,12.93,11111222 
WAVCIS,ioos:station:WAVCIS:CSI15:1,2008-12-02T08:00:00Z,28.8332,-90.8320,12.6,11111222 
WAVCIS,ioos:station:WAVCIS:CSI15:1,2008-12-02T09:00:00Z,28.8332,-90.8320,12.52,11111222 
WAVCIS,ioos:station:WAVCIS:CSI15:1,2008-12-02T10:00:00Z,28.8332,-90.8320,12.15,11111222 
WAVCIS,ioos:station:WAVCIS:CSI15:1,2008-12-02T11:00:00Z,28.8332,-90.8320,11.88,11111222 
WAVCIS,ioos:station:WAVCIS:CSI15:1,2008-12-02T12:00:00Z,28.8332,-90.8320,11.98,11111222 
WAVCIS,ioos:station:WAVCIS:CSI15:1,2008-12-02T13:00:00Z,28.8332,-90.8320,12.26,11111222 
WAVCIS,ioos:station:WAVCIS:CSI15:1,2008-12-02T14:00:00Z,28.8332,-90.8320,13.69,11111222 
WAVCIS,ioos:station:WAVCIS:CSI15:1,2008-12-02T15:00:00Z,28.8332,-90.8320,15.31,11111222 
WAVCIS,ioos:station:WAVCIS:CSI15:1,2008-12-02T16:00:00Z,28.8332,-90.8320,16.04,11111222 
WAVCIS,ioos:station:WAVCIS:CSI15:1,2008-12-02T17:00:00Z,28.8332,-90.8320,14.97,11111222 
WAVCIS,ioos:station:WAVCIS:CSI15:1,2008-12-02T18:00:00Z,28.8332,-90.8320,15.6,11111222 
WAVCIS,ioos:station:WAVCIS:CSI15:1,2008-12-02T19:00:00Z,28.8332,-90.8320,16.36,11111222 
WAVCIS,ioos:station:WAVCIS:CSI15:1,2008-12-02T20:00:00Z,28.8332,-90.8320,17.11,11111222 
WAVCIS,ioos:station:WAVCIS:CSI15:1,2008-12-02T21:00:00Z,28.8332,-90.8320,17.41,11111222 
WAVCIS,ioos:station:WAVCIS:CSI15:1,2008-12-02T22:00:00Z,28.8332,-90.8320,18.03,11111222 
WAVCIS,ioos:station:WAVCIS:CSI15:1,2008-12-02T23:00:00Z,28.8332,-90.8320,18.19,11111222 
WAVCIS,ioos:station:WAVCIS:CSI15:1,2008-12-03T00:00:00Z,28.8332,-90.8320,18.43,11111222 
WAVCIS,ioos:station:WAVCIS:CSI15:1,2008-12-03T01:00:00Z,28.8332,-90.8320,18.8,11111222 
WAVCIS,ioos:station:WAVCIS:CSI15:1,2008-12-03T02:00:00Z,28.8332,-90.8320,19.07,11111222 
WAVCIS,ioos:station:WAVCIS:CSI15:1,2008-12-03T03:00:00Z,28.8332,-90.8320,19.56,11111222 
WAVCIS,ioos:station:WAVCIS:CSI15:1,2008-12-03T04:00:00Z,28.8332,-90.8320,19.95,11111222 
WAVCIS,ioos:station:WAVCIS:CSI15:1,2008-12-03T05:00:00Z,28.8332,-90.8320,20.19,11111222 
WAVCIS,ioos:station:WAVCIS:CSI15:1,2008-12-03T06:00:00Z,28.8332,-90.8320,20.35,11111222 
WAVCIS,ioos:station:WAVCIS:CSI15:1,2008-12-03T07:00:00Z,28.8332,-90.8320,20.51,11111222 
WAVCIS,ioos:station:WAVCIS:CSI15:1,2008-12-03T08:00:00Z,28.8332,-90.8320,20.74,11111222 
WAVCIS,ioos:station:WAVCIS:CSI15:1,2008-12-03T09:00:00Z,28.8332,-90.8320,20.92,11111222 
WAVCIS,ioos:station:WAVCIS:CSI15:1,2008-12-03T10:00:00Z,28.8332,-90.8320,21.0,11111222 
WAVCIS,ioos:station:WAVCIS:CSI15:1,2008-12-03T11:00:00Z,28.8332,-90.8320,21.11,11111222 
WAVCIS,ioos:station:WAVCIS:CSI15:1,2008-12-03T12:00:00Z,28.8332,-90.8320,21.34,11111222 
WAVCIS,ioos:station:WAVCIS:CSI15:1,2008-12-03T13:00:00Z,28.8332,-90.8320,21.69,11111222 
WAVCIS,ioos:station:WAVCIS:CSI15:1,2008-12-03T14:00:00Z,28.8332,-90.8320,22.05,11111222 
WAVCIS,ioos:station:WAVCIS:CSI15:1,2008-12-03T15:00:00Z,28.8332,-90.8320,22.5,11111222 
WAVCIS,ioos:station:WAVCIS:CSI15:1,2008-12-03T16:00:00Z,28.8332,-90.8320,22.65,11111222 
WAVCIS,ioos:station:WAVCIS:CSI15:1,2008-12-03T17:00:00Z,28.8332,-90.8320,22.85,11111222 
WAVCIS,ioos:station:WAVCIS:CSI15:1,2008-12-03T18:00:00Z,28.8332,-90.8320,23.24,11111222 
WAVCIS,ioos:station:WAVCIS:CSI15:1,2008-12-03T19:00:00Z,28.8332,-90.8320,23.23,11111222 
WAVCIS,ioos:station:WAVCIS:CSI15:1,2008-12-03T20:00:00Z,28.8332,-90.8320,23.36,11111222 
WAVCIS,ioos:station:WAVCIS:CSI15:1,2008-12-03T21:00:00Z,28.8332,-90.8320,23.44,11111222 
WAVCIS,ioos:station:WAVCIS:CSI15:1,2008-12-03T22:00:00Z,28.8332,-90.8320,23.66,11111222 
WAVCIS,ioos:station:WAVCIS:CSI15:1,2008-12-03T23:00:00Z,28.8332,-90.8320,23.26,11111222 
WAVCIS,ioos:station:WAVCIS:CSI15:1,2008-12-04T00:00:00Z,28.8332,-90.8320,23.69,11111222 
WAVCIS,ioos:station:WAVCIS:CSI15:1,2008-12-04T01:00:00Z,28.8332,-90.8320,23.44,11111222 
WAVCIS,ioos:station:WAVCIS:CSI15:1,2008-12-04T02:00:00Z,28.8332,-90.8320,24.09,11111222 
WAVCIS,ioos:station:WAVCIS:CSI15:1,2008-12-04T03:00:00Z,28.8332,-90.8320,23.85,11111222 
WAVCIS,ioos:station:WAVCIS:CSI15:1,2008-12-04T04:00:00Z,28.8332,-90.8320,23.64,11111222 
WAVCIS,ioos:station:WAVCIS:CSI15:1,2008-12-04T05:00:00Z,28.8332,-90.8320,23.7,11111222 
WAVCIS,ioos:station:WAVCIS:CSI15:1,2008-12-04T06:00:00Z,28.8332,-90.8320,23.82,11111222 
WAVCIS,ioos:station:WAVCIS:CSI15:1,2008-12-04T07:00:00Z,28.8332,-90.8320,23.83,11111222 
WAVCIS,ioos:station:WAVCIS:CSI15:1,2008-12-04T08:00:00Z,28.8332,-90.8320,23.88,11111222 
WAVCIS,ioos:station:WAVCIS:CSI15:1,2008-12-04T09:00:00Z,28.8332,-90.8320,24.07,11111222 
WAVCIS,ioos:station:WAVCIS:CSI15:1,2008-12-04T10:00:00Z,28.8332,-90.8320,24.15,11111222 
WAVCIS,ioos:station:WAVCIS:CSI15:1,2008-12-04T11:00:00Z,28.8332,-90.8320,24.16,11111222 
WAVCIS,ioos:station:WAVCIS:CSI15:1,2008-12-04T12:00:00Z,28.8332,-90.8320,24.25,11111222 
WAVCIS,ioos:station:WAVCIS:CSI15:1,2008-12-04T13:00:00Z,28.8332,-90.8320,24.21,11111222 
WAVCIS,ioos:station:WAVCIS:CSI15:1,2008-12-04T14:00:00Z,28.8332,-90.8320,24.18,11111222 
WAVCIS,ioos:station:WAVCIS:CSI15:1,2008-12-04T15:00:00Z,28.8332,-90.8320,23.59,11111222 
WAVCIS,ioos:station:WAVCIS:CSI15:1,2008-12-04T16:00:00Z,28.8332,-90.8320,22.37,11111222 
WAVCIS,ioos:station:WAVCIS:CSI15:1,2008-12-04T17:00:00Z,28.8332,-90.8320,23.56,11111222 
WAVCIS,ioos:station:WAVCIS:CSI15:1,2008-12-04T18:00:00Z,28.8332,-90.8320,21.52,11111222 
WAVCIS,ioos:station:WAVCIS:CSI15:1,2008-12-04T19:00:00Z,28.8332,-90.8320,21.53,11111222 
WAVCIS,ioos:station:WAVCIS:CSI15:1,2008-12-04T20:00:00Z,28.8332,-90.8320,20.59,11111222 
WAVCIS,ioos:station:WAVCIS:CSI15:1,2008-12-04T21:00:00Z,28.8332,-90.8320,20.18,11111222 
WAVCIS,ioos:station:WAVCIS:CSI15:1,2008-12-04T22:00:00Z,28.8332,-90.8320,18.93,11111222 
WAVCIS,ioos:station:WAVCIS:CSI15:1,2008-12-04T23:00:00Z,28.8332,-90.8320,17.88,11111222 
WAVCIS,ioos:station:WAVCIS:CSI15:1,2008-12-05T00:00:00Z,28.8332,-90.8320,17.88,11111222 
WAVCIS,ioos:station:WAVCIS:CSI15:1,2008-12-05T01:00:00Z,28.8332,-90.8320,16.74,11111222 
WAVCIS,ioos:station:WAVCIS:CSI15:1,2008-12-05T02:00:00Z,28.8332,-90.8320,15.92,11111222 
WAVCIS,ioos:station:WAVCIS:CSI15:1,2008-12-05T03:00:00Z,28.8332,-90.8320,15.23,11111222 
WAVCIS,ioos:station:WAVCIS:CSI15:1,2008-12-05T04:00:00Z,28.8332,-90.8320,15.21,11111222 
WAVCIS,ioos:station:WAVCIS:CSI15:1,2008-12-05T05:00:00Z,28.8332,-90.8320,14.68,11111222 
WAVCIS,ioos:station:WAVCIS:CSI15:1,2008-12-05T06:00:00Z,28.8332,-90.8320,14.03,11111222 
WAVCIS,ioos:station:WAVCIS:CSI15:1,2008-12-05T07:00:00Z,28.8332,-90.8320,13.94,11111222 
WAVCIS,ioos:station:WAVCIS:CSI15:1,2008-12-05T08:00:00Z,28.8332,-90.8320,13.47,11111222 
WAVCIS,ioos:station:WAVCIS:CSI15:1,2008-12-05T09:00:00Z,28.8332,-90.8320,12.7,11111222 
WAVCIS,ioos:station:WAVCIS:CSI15:1,2008-12-05T10:00:00Z,28.8332,-90.8320,12.66,11111222 
WAVCIS,ioos:station:WAVCIS:CSI15:1,2008-12-05T11:00:00Z,28.8332,-90.8320,12.68,11111222 
WAVCIS,ioos:station:WAVCIS:CSI15:1,2008-12-05T12:00:00Z,28.8332,-90.8320,12.62,11111222 
WAVCIS,ioos:station:WAVCIS:CSI15:1,2008-12-05T13:00:00Z,28.8332,-90.8320,12.41,11111222 
WAVCIS,ioos:station:WAVCIS:CSI15:1,2008-12-05T14:00:00Z,28.8332,-90.8320,12.26,11111222 
WAVCIS,ioos:station:WAVCIS:CSI15:1,2008-12-05T15:00:00Z,28.8332,-90.8320,12.0,11111222 
WAVCIS,ioos:station:WAVCIS:CSI15:1,2008-12-05T16:00:00Z,28.8332,-90.8320,12.16,11111222 
WAVCIS,ioos:station:WAVCIS:CSI15:1,2008-12-05T17:00:00Z,28.8332,-90.8320,12.38,11111222 
WAVCIS,ioos:station:WAVCIS:CSI15:1,2008-12-05T18:00:00Z,28.8332,-90.8320,12.86,11111222 
WAVCIS,ioos:station:WAVCIS:CSI15:1,2008-12-05T19:00:00Z,28.8332,-90.8320,13.54,11111222 
WAVCIS,ioos:station:WAVCIS:CSI15:1,2008-12-05T20:00:00Z,28.8332,-90.8320,14.22,11111222 
WAVCIS,ioos:station:WAVCIS:CSI15:1,2008-12-05T21:00:00Z,28.8332,-90.8320,15.14,11111222 
WAVCIS,ioos:station:WAVCIS:CSI15:1,2008-12-05T22:00:00Z,28.8332,-90.8320,16.19,11111222 
WAVCIS,ioos:station:WAVCIS:CSI15:1,2008-12-05T23:00:00Z,28.8332,-90.8320,16.33,11111222 
WAVCIS,ioos:station:WAVCIS:CSI15:1,2008-12-06T00:00:00Z,28.8332,-90.8320,16.06,11111222 
WAVCIS,ioos:station:WAVCIS:CSI15:1,2008-12-06T01:00:00Z,28.8332,-90.8320,15.91,11111222 
WAVCIS,ioos:station:WAVCIS:CSI15:1,2008-12-06T02:00:00Z,28.8332,-90.8320,15.84,11111222 
WAVCIS,ioos:station:WAVCIS:CSI15:1,2008-12-06T03:00:00Z,28.8332,-90.8320,15.95,11111222 
WAVCIS,ioos:station:WAVCIS:CSI15:1,2008-12-06T04:00:00Z,28.8332,-90.8320,15.99,11111222 
WAVCIS,ioos:station:WAVCIS:CSI15:1,2008-12-06T05:00:00Z,28.8332,-90.8320,16.14,11111222 
WAVCIS,ioos:station:WAVCIS:CSI15:1,2008-12-06T06:00:00Z,28.8332,-90.8320,15.29,11111222 
WAVCIS,ioos:station:WAVCIS:CSI15:1,2008-12-06T07:00:00Z,28.8332,-90.8320,14.91,11111222 
WAVCIS,ioos:station:WAVCIS:CSI15:1,2008-12-06T08:00:00Z,28.8332,-90.8320,14.62,11111222 
WAVCIS,ioos:station:WAVCIS:CSI15:1,2008-12-06T09:00:00Z,28.8332,-90.8320,14.64,11111222 
WAVCIS,ioos:station:WAVCIS:CSI15:1,2008-12-06T10:00:00Z,28.8332,-90.8320,15.32,11111222 
WAVCIS,ioos:station:WAVCIS:CSI15:1,2008-12-06T11:00:00Z,28.8332,-90.8320,16.63,11111222 
WAVCIS,ioos:station:WAVCIS:CSI15:1,2008-12-06T12:00:00Z,28.8332,-90.8320,18.75,11111222 
WAVCIS,ioos:station:WAVCIS:CSI15:1,2008-12-06T13:00:00Z,28.8332,-90.8320,18.72,11111222 
WAVCIS,ioos:station:WAVCIS:CSI15:1,2008-12-06T14:00:00Z,28.8332,-90.8320,16.3,11111222 
WAVCIS,ioos:station:WAVCIS:CSI15:1,2008-12-06T15:00:00Z,28.8332,-90.8320,19.78,11111222 
WAVCIS,ioos:station:WAVCIS:CSI15:1,2008-12-06T16:00:00Z,28.8332,-90.8320,18.36,11111222 
WAVCIS,ioos:station:WAVCIS:CSI15:1,2008-12-06T17:00:00Z,28.8332,-90.8320,15.59,11111222 
WAVCIS,ioos:station:WAVCIS:CSI15:1,2008-12-06T18:00:00Z,28.8332,-90.8320,15.44,11111222 
WAVCIS,ioos:station:WAVCIS:CSI15:1,2008-12-06T19:00:00Z,28.8332,-90.8320,15.51,11111222 
WAVCIS,ioos:station:WAVCIS:CSI15:1,2008-12-06T20:00:00Z,28.8332,-90.8320,15.88,11111222 
WAVCIS,ioos:station:WAVCIS:CSI15:1,2008-12-06T21:00:00Z,28.8332,-90.8320,16.17,11111222 
WAVCIS,ioos:station:WAVCIS:CSI15:1,2008-12-06T22:00:00Z,28.8332,-90.8320,16.01,11111222 
WAVCIS,ioos:station:WAVCIS:CSI15:1,2008-12-06T23:00:00Z,28.8332,-90.8320,16.42,11111222 
WAVCIS,ioos:station:WAVCIS:CSI15:1,2008-12-07T00:00:00Z,28.8332,-90.8320,16.47,11111222 
WAVCIS,ioos:station:WAVCIS:CSI15:1,2008-12-07T01:00:00Z,28.8332,-90.8320,16.6,11111222 
WAVCIS,ioos:station:WAVCIS:CSI15:1,2008-12-07T02:00:00Z,28.8332,-90.8320,16.91,11111222 
WAVCIS,ioos:station:WAVCIS:CSI15:1,2008-12-07T03:00:00Z,28.8332,-90.8320,16.87,11111222 
WAVCIS,ioos:station:WAVCIS:CSI15:1,2008-12-07T04:00:00Z,28.8332,-90.8320,16.25,11111222 
WAVCIS,ioos:station:WAVCIS:CSI15:1,2008-12-07T05:00:00Z,28.8332,-90.8320,15.85,11111222 
WAVCIS,ioos:station:WAVCIS:CSI15:1,2008-12-07T06:00:00Z,28.8332,-90.8320,15.66,11111222 
WAVCIS,ioos:station:WAVCIS:CSI15:1,2008-12-07T07:00:00Z,28.8332,-90.8320,15.44,11111222 
WAVCIS,ioos:station:WAVCIS:CSI15:1,2008-12-07T08:00:00Z,28.8332,-90.8320,15.1,11111222 
WAVCIS,ioos:station:WAVCIS:CSI15:1,2008-12-07T09:00:00Z,28.8332,-90.8320,14.7,11111222 
WAVCIS,ioos:station:WAVCIS:CSI15:1,2008-12-07T10:00:00Z,28.8332,-90.8320,15.32,11111222 
WAVCIS,ioos:station:WAVCIS:CSI15:1,2008-12-07T11:00:00Z,28.8332,-90.8320,15.13,11111222 
WAVCIS,ioos:station:WAVCIS:CSI15:1,2008-12-07T12:00:00Z,28.8332,-90.8320,14.73,11111222 
WAVCIS,ioos:station:WAVCIS:CSI15:1,2008-12-07T13:00:00Z,28.8332,-90.8320,14.47,11111222 
WAVCIS,ioos:station:WAVCIS:CSI15:1,2008-12-07T14:00:00Z,28.8332,-90.8320,14.64,11111222 
WAVCIS,ioos:station:WAVCIS:CSI15:1,2008-12-07T15:00:00Z,28.8332,-90.8320,14.33,11111222 
WAVCIS,ioos:station:WAVCIS:CSI15:1,2008-12-07T16:00:00Z,28.8332,-90.8320,14.65,11111222 
WAVCIS,ioos:station:WAVCIS:CSI15:1,2008-12-07T17:00:00Z,28.8332,-90.8320,15.14,11111222 
WAVCIS,ioos:station:WAVCIS:CSI15:1,2008-12-07T18:00:00Z,28.8332,-90.8320,15.72,11111222 
WAVCIS,ioos:station:WAVCIS:CSI15:1,2008-12-07T19:00:00Z,28.8332,-90.8320,15.95,11111222 
WAVCIS,ioos:station:WAVCIS:CSI15:1,2008-12-07T20:00:00Z,28.8332,-90.8320,16.28,11111222 
WAVCIS,ioos:station:WAVCIS:CSI15:1,2008-12-07T21:00:00Z,28.8332,-90.8320,16.62,11111222 
WAVCIS,ioos:station:WAVCIS:CSI15:1,2008-12-07T22:00:00Z,28.8332,-90.8320,16.86,11111222 
WAVCIS,ioos:station:WAVCIS:CSI15:1,2008-12-07T23:00:00Z,28.8332,-90.8320,16.93,11111222 
WAVCIS,ioos:station:WAVCIS:CSI15:1,2008-12-08T00:00:00Z,28.8332,-90.8320,17.17,11111222 
WAVCIS,ioos:station:WAVCIS:CSI15:1,2008-12-08T01:00:00Z,28.8332,-90.8320,17.44,11111222 
WAVCIS,ioos:station:WAVCIS:CSI15:1,2008-12-08T02:00:00Z,28.8332,-90.8320,17.42,11111222 
WAVCIS,ioos:station:WAVCIS:CSI15:1,2008-12-08T03:00:00Z,28.8332,-90.8320,17.69,11111222 
WAVCIS,ioos:station:WAVCIS:CSI15:1,2008-12-08T04:00:00Z,28.8332,-90.8320,17.88,11111222 
WAVCIS,ioos:station:WAVCIS:CSI15:1,2008-12-08T05:00:00Z,28.8332,-90.8320,18.13,11111222 
WAVCIS,ioos:station:WAVCIS:CSI15:1,2008-12-08T06:00:00Z,28.8332,-90.8320,18.39,11111222 
WAVCIS,ioos:station:WAVCIS:CSI15:1,2008-12-08T07:00:00Z,28.8332,-90.8320,18.78,11111222 
WAVCIS,ioos:station:WAVCIS:CSI15:1,2008-12-08T08:00:00Z,28.8332,-90.8320,20.66,11111222 
WAVCIS,ioos:station:WAVCIS:CSI15:1,2008-12-08T09:00:00Z,28.8332,-90.8320,24.3,11111222 
WAVCIS,ioos:station:WAVCIS:CSI15:1,2008-12-08T10:00:00Z,28.8332,-90.8320,21.39,11111222 
WAVCIS,ioos:station:WAVCIS:CSI15:1,2008-12-08T11:00:00Z,28.8332,-90.8320,25.44,11111222 
WAVCIS,ioos:station:WAVCIS:CSI15:1,2008-12-08T12:00:00Z,28.8332,-90.8320,21.42,11111222 
WAVCIS,ioos:station:WAVCIS:CSI15:1,2008-12-08T13:00:00Z,28.8332,-90.8320,21.67,11111222 
WAVCIS,ioos:station:WAVCIS:CSI15:1,2008-12-08T14:00:00Z,28.8332,-90.8320,23.69,11111222 
WAVCIS,ioos:station:WAVCIS:CSI15:1,2008-12-08T15:00:00Z,28.8332,-90.8320,23.24,11111222 
WAVCIS,ioos:station:WAVCIS:CSI15:1,2008-12-08T16:00:00Z,28.8332,-90.8320,24.35,11111222 
WAVCIS,ioos:station:WAVCIS:CSI15:1,2008-12-08T17:00:00Z,28.8332,-90.8320,24.58,11111222 
WAVCIS,ioos:station:WAVCIS:CSI15:1,2008-12-08T18:00:00Z,28.8332,-90.8320,23.56,11111222 
WAVCIS,ioos:station:WAVCIS:CSI15:1,2008-12-08T19:00:00Z,28.8332,-90.8320,25.32,11111222 
WAVCIS,ioos:station:WAVCIS:CSI15:1,2008-12-08T20:00:00Z,28.8332,-90.8320,26.86,11111222 
WAVCIS,ioos:station:WAVCIS:CSI15:1,2008-12-08T21:00:00Z,28.8332,-90.8320,24.5,11111222 
WAVCIS,ioos:station:WAVCIS:CSI15:1,2008-12-08T22:00:00Z,28.8332,-90.8320,26.49,11111222 
WAVCIS,ioos:station:WAVCIS:CSI15:1,2008-12-08T23:00:00Z,28.8332,-90.8320,25.64,11111222 
WAVCIS,ioos:station:WAVCIS:CSI15:1,2008-12-09T00:00:00Z,28.8332,-90.8320,23.92,11111222 
WAVCIS,ioos:station:WAVCIS:CSI15:1,2008-12-09T01:00:00Z,28.8332,-90.8320,23.93,11111222 
WAVCIS,ioos:station:WAVCIS:CSI15:1,2008-12-09T02:00:00Z,28.8332,-90.8320,24.09,11111222 
WAVCIS,ioos:station:WAVCIS:CSI15:1,2008-12-09T03:00:00Z,28.8332,-90.8320,24.57,11111222 
WAVCIS,ioos:station:WAVCIS:CSI15:1,2008-12-09T04:00:00Z,28.8332,-90.8320,23.95,11111222 
WAVCIS,ioos:station:WAVCIS:CSI15:1,2008-12-09T05:00:00Z,28.8332,-90.8320,24.14,11111222 
WAVCIS,ioos:station:WAVCIS:CSI15:1,2008-12-09T06:00:00Z,28.8332,-90.8320,25.25,11111222 
WAVCIS,ioos:station:WAVCIS:CSI15:1,2008-12-09T07:00:00Z,28.8332,-90.8320,24.31,11111222 
WAVCIS,ioos:station:WAVCIS:CSI15:1,2008-12-09T08:00:00Z,28.8332,-90.8320,26.1,11111222 
WAVCIS,ioos:station:WAVCIS:CSI15:1,2008-12-09T09:00:00Z,28.8332,-90.8320,24.35,11111222 
WAVCIS,ioos:station:WAVCIS:CSI15:1,2008-12-09T10:00:00Z,28.8332,-90.8320,24.32,11111222 
WAVCIS,ioos:station:WAVCIS:CSI15:1,2008-12-09T11:00:00Z,28.8332,-90.8320,24.46,11111222 
WAVCIS,ioos:station:WAVCIS:CSI15:1,2008-12-09T12:00:00Z,28.8332,-90.8320,24.52,11111222 
WAVCIS,ioos:station:WAVCIS:CSI15:1,2008-12-09T13:00:00Z,28.8332,-90.8320,24.49,11111222 
WAVCIS,ioos:station:WAVCIS:CSI15:1,2008-12-09T14:00:00Z,28.8332,-90.8320,24.68,11111222 
WAVCIS,ioos:station:WAVCIS:CSI15:1,2008-12-09T15:00:00Z,28.8332,-90.8320,24.68,11111222 
WAVCIS,ioos:station:WAVCIS:CSI15:1,2008-12-09T16:00:00Z,28.8332,-90.8320,24.95,11111222 
WAVCIS,ioos:station:WAVCIS:CSI15:1,2008-12-09T17:00:00Z,28.8332,-90.8320,25.07,11111222 
WAVCIS,ioos:station:WAVCIS:CSI15:1,2008-12-09T18:00:00Z,28.8332,-90.8320,25.29,11111222 
WAVCIS,ioos:station:WAVCIS:CSI15:1,2008-12-09T19:00:00Z,28.8332,-90.8320,25.47,11111222 
WAVCIS,ioos:station:WAVCIS:CSI15:1,2008-12-09T20:00:00Z,28.8332,-90.8320,25.36,11111222 
WAVCIS,ioos:station:WAVCIS:CSI15:1,2008-12-09T21:00:00Z,28.8332,-90.8320,25.72,11111222 
WAVCIS,ioos:station:WAVCIS:CSI15:1,2008-12-09T22:00:00Z,28.8332,-90.8320,25.63,11111222 
WAVCIS,ioos:station:WAVCIS:CSI15:1,2008-12-09T23:00:00Z,28.8332,-90.8320,25.42,11111222 
WAVCIS,ioos:station:WAVCIS:CSI15:1,2008-12-10T00:00:00Z,28.8332,-90.8320,25.42,11111222 
WAVCIS,ioos:station:WAVCIS:CSI15:1,2008-12-10T01:00:00Z,28.8332,-90.8320,25.32,11111222 
WAVCIS,ioos:station:WAVCIS:CSI15:1,2008-12-10T02:00:00Z,28.8332,-90.8320,25.31,11111222 
WAVCIS,ioos:station:WAVCIS:CSI15:1,2008-12-10T03:00:00Z,28.8332,-90.8320,25.2,11111222 
WAVCIS,ioos:station:WAVCIS:CSI15:1,2008-12-10T04:00:00Z,28.8332,-90.8320,25.58,11111222 
WAVCIS,ioos:station:WAVCIS:CSI15:1,2008-12-10T05:00:00Z,28.8332,-90.8320,25.16,11111222 
WAVCIS,ioos:station:WAVCIS:CSI15:1,2008-12-10T06:00:00Z,28.8332,-90.8320,25.42,11111222 
WAVCIS,ioos:station:WAVCIS:CSI15:1,2008-12-10T07:00:00Z,28.8332,-90.8320,25.78,11111222 
WAVCIS,ioos:station:WAVCIS:CSI15:1,2008-12-10T08:00:00Z,28.8332,-90.8320,25.89,11111222 
WAVCIS,ioos:station:WAVCIS:CSI15:1,2008-12-10T09:00:00Z,28.8332,-90.8320,25.46,11111222 
WAVCIS,ioos:station:WAVCIS:CSI15:1,2008-12-10T10:00:00Z,28.8332,-90.8320,24.66,11111222 
WAVCIS,ioos:station:WAVCIS:CSI15:1,2008-12-10T11:00:00Z,28.8332,-90.8320,19.97,11111222 
WAVCIS,ioos:station:WAVCIS:CSI15:1,2008-12-10T12:00:00Z,28.8332,-90.8320,19.32,11111222 
WAVCIS,ioos:station:WAVCIS:CSI15:1,2008-12-10T13:00:00Z,28.8332,-90.8320,19.39,11111222 
WAVCIS,ioos:station:WAVCIS:CSI15:1,2008-12-10T14:00:00Z,28.8332,-90.8320,18.98,11111222 
WAVCIS,ioos:station:WAVCIS:CSI15:1,2008-12-10T15:00:00Z,28.8332,-90.8320,19.03,11111222 
WAVCIS,ioos:station:WAVCIS:CSI15:1,2008-12-10T16:00:00Z,28.8332,-90.8320,18.18,11111222 
WAVCIS,ioos:station:WAVCIS:CSI15:1,2008-12-10T17:00:00Z,28.8332,-90.8320,15.78,11111222 
WAVCIS,ioos:station:WAVCIS:CSI15:1,2008-12-10T18:00:00Z,28.8332,-90.8320,14.96,11111222 
WAVCIS,ioos:station:WAVCIS:CSI15:1,2008-12-10T19:00:00Z,28.8332,-90.8320,14.04,11111222 
WAVCIS,ioos:station:WAVCIS:CSI15:1,2008-12-10T20:00:00Z,28.8332,-90.8320,13.76,11111222 
WAVCIS,ioos:station:WAVCIS:CSI15:1,2008-12-10T21:00:00Z,28.8332,-90.8320,13.14,11111222 
WAVCIS,ioos:station:WAVCIS:CSI15:1,2008-12-10T22:00:00Z,28.8332,-90.8320,13.55,11111222 
WAVCIS,ioos:station:WAVCIS:CSI15:1,2008-12-10T23:00:00Z,28.8332,-90.8320,12.91,11111222 
WAVCIS,ioos:station:WAVCIS:CSI15:1,2008-12-11T00:00:00Z,28.8332,-90.8320,12.88,11111222 
WAVCIS,ioos:station:WAVCIS:CSI15:1,2008-12-11T01:00:00Z,28.8332,-90.8320,12.32,11111222 
WAVCIS,ioos:station:WAVCIS:CSI15:1,2008-12-11T02:00:00Z,28.8332,-90.8320,12.5,11111222 
WAVCIS,ioos:station:WAVCIS:CSI15:1,2008-12-11T03:00:00Z,28.8332,-90.8320,12.82,11111222 
WAVCIS,ioos:station:WAVCIS:CSI15:1,2008-12-11T04:00:00Z,28.8332,-90.8320,12.16,11111222 
WAVCIS,ioos:station:WAVCIS:CSI15:1,2008-12-11T05:00:00Z,28.8332,-90.8320,11.81,11111222 
WAVCIS,ioos:station:WAVCIS:CSI15:1,2008-12-11T06:00:00Z,28.8332,-90.8320,11.07,11111222 
WAVCIS,ioos:station:WAVCIS:CSI15:1,2008-12-11T07:00:00Z,28.8332,-90.8320,10.95,11111222 
WAVCIS,ioos:station:WAVCIS:CSI15:1,2008-12-11T08:00:00Z,28.8332,-90.8320,10.85,11111222 
WAVCIS,ioos:station:WAVCIS:CSI15:1,2008-12-11T09:00:00Z,28.8332,-90.8320,11.49,11111222 
WAVCIS,ioos:station:WAVCIS:CSI15:1,2008-12-11T10:00:00Z,28.8332,-90.8320,11.65,11111222 
WAVCIS,ioos:station:WAVCIS:CSI15:1,2008-12-11T11:00:00Z,28.8332,-90.8320,11.3,11111222 
WAVCIS,ioos:station:WAVCIS:CSI15:1,2008-12-11T12:00:00Z,28.8332,-90.8320,11.1,11111222 
WAVCIS,ioos:station:WAVCIS:CSI15:1,2008-12-11T13:00:00Z,28.8332,-90.8320,10.31,11111222 
WAVCIS,ioos:station:WAVCIS:CSI15:1,2008-12-11T14:00:00Z,28.8332,-90.8320,10.43,11111222 
WAVCIS,ioos:station:WAVCIS:CSI15:1,2008-12-11T15:00:00Z,28.8332,-90.8320,10.06,11111222 
WAVCIS,ioos:station:WAVCIS:CSI15:1,2008-12-11T16:00:00Z,28.8332,-90.8320,10.05,11111222 
WAVCIS,ioos:station:WAVCIS:CSI15:1,2008-12-11T17:00:00Z,28.8332,-90.8320,9.82,11111222 
WAVCIS,ioos:station:WAVCIS:CSI15:1,2008-12-11T18:00:00Z,28.8332,-90.8320,9.61,11111222 
WAVCIS,ioos:station:WAVCIS:CSI15:1,2008-12-11T19:00:00Z,28.8332,-90.8320,10.37,11111222 
WAVCIS,ioos:station:WAVCIS:CSI15:1,2008-12-11T20:00:00Z,28.8332,-90.8320,11.19,11111222 
WAVCIS,ioos:station:WAVCIS:CSI15:1,2008-12-11T21:00:00Z,28.8332,-90.8320,10.95,11111222 
WAVCIS,ioos:station:WAVCIS:CSI15:1,2008-12-11T22:00:00Z,28.8332,-90.8320,10.75,11111222 
WAVCIS,ioos:station:WAVCIS:CSI15:1,2008-12-11T23:00:00Z,28.8332,-90.8320,11.04,11111222 
WAVCIS,ioos:station:WAVCIS:CSI15:1,2008-12-12T00:00:00Z,28.8332,-90.8320,12.1,11111222 
WAVCIS,ioos:station:WAVCIS:CSI15:1,2008-12-12T01:00:00Z,28.8332,-90.8320,12.57,11111222 
WAVCIS,ioos:station:WAVCIS:CSI15:1,2008-12-12T02:00:00Z,28.8332,-90.8320,13.35,11111222 
WAVCIS,ioos:station:WAVCIS:CSI15:1,2008-12-12T03:00:00Z,28.8332,-90.8320,13.13,11111222 
WAVCIS,ioos:station:WAVCIS:CSI15:1,2008-12-12T04:00:00Z,28.8332,-90.8320,13.33,11111222 